DW4682 Rouen FR current weather conditions

sailwx.info

Wind from 270 at 6 knots gusting 6

Air temperature 25.0° C
Dewpoint 18.4° C

Last reported at 2019-Jun-19 12:09 UTC.
Time now 2019-Jun-19 12:47 UTC

Location: N 49°11' E 000°53'.
View on Google Maps.

See reports from other nearby stations

  
Tides and Currents Weather Stations Pressure Air Temp Water Temp Dewpoint Dewpoint Depression Visibility Wind Speed Wind Dir Waves Ship Positions
date/time (UTC)wind fromknots sea level pressurealtimeterstation pressurevisibilityair tempwater tempwave heightnotes
2019-Jun-19 12:09 270 6 gusting 6 25.0
2019-Jun-19 12:04 270 6 gusting 6 25.0
2019-Jun-19 11:59 270 6 gusting 9 25.0
2019-Jun-19 11:54 248 6 gusting 6 24.4
2019-Jun-19 11:49 270 7 gusting 7 24.4
2019-Jun-19 11:44 270 6 gusting 6 23.9
2019-Jun-19 11:39 270 6 gusting 6 23.9
2019-Jun-19 11:34 270 6 gusting 6 23.3
2019-Jun-19 11:29 293 6 gusting 6 23.3
2019-Jun-19 11:24 248 6 gusting 6 23.9
2019-Jun-19 11:19 270 5 gusting 7 23.9
2019-Jun-19 11:14 270 5 gusting 5 23.9
2019-Jun-19 11:09 248 5 gusting 5 23.9
2019-Jun-19 11:04 270 6 gusting 6 23.9
2019-Jun-19 10:59 248 6 gusting 6 23.9
2019-Jun-19 10:54 270 6 gusting 6 23.9
2019-Jun-19 10:49 293 6 gusting 6 23.9
2019-Jun-19 10:44 270 6 gusting 6 23.3
2019-Jun-19 10:39 270 5 gusting 5 23.3
2019-Jun-19 10:34 270 5 gusting 5 23.9
2019-Jun-19 10:29 315 5 gusting 6 23.9
2019-Jun-19 10:24 248 4 gusting 5 23.9
2019-Jun-19 10:19 248 5 gusting 5 23.3
2019-Jun-19 10:14 270 5 gusting 5 23.3
2019-Jun-19 10:09 293 5 gusting 5 23.3
2019-Jun-19 10:04 315 4 gusting 5 23.9
2019-Jun-19 09:59 315 3 gusting 6 23.9
2019-Jun-19 09:54 270 4 gusting 4 23.3
2019-Jun-19 09:49 315 4 gusting 4 23.3
2019-Jun-19 09:44 270 5 gusting 5 22.8
2019-Jun-19 09:39 338 5 gusting 5 22.8
2019-Jun-19 09:34 293 5 gusting 5 22.8
2019-Jun-19 09:29 293 4 gusting 5 22.8
2019-Jun-19 09:24 293 4 gusting 4 22.8
2019-Jun-19 09:19 338 4 gusting 6 22.8
2019-Jun-19 09:14 315 5 gusting 5 22.2
2019-Jun-19 09:09 293 6 gusting 6 22.2
2019-Jun-19 09:04 248 6 gusting 6 22.2
2019-Jun-19 08:59 248 5 gusting 6 22.2
2019-Jun-19 08:54 225 5 gusting 6 21.7
2019-Jun-19 08:49 293 5 gusting 6 21.7
2019-Jun-19 08:44 248 5 gusting 8 21.7
2019-Jun-19 08:39 293 4 gusting 5 21.7
2019-Jun-19 08:34 225 5 gusting 5 21.7
2019-Jun-19 08:29 248 5 gusting 5 21.1
2019-Jun-19 08:24 248 5 gusting 5 21.1
2019-Jun-19 08:19 248 5 gusting 6 21.1
2019-Jun-19 08:14 293 5 gusting 6 21.1
2019-Jun-19 08:09 270 5 gusting 7 21.1
2019-Jun-19 08:04 293 6 gusting 6 20.6
2019-Jun-19 07:59 315 5 gusting 6 20.0
2019-Jun-19 07:54 315 4 gusting 8 20.0
2019-Jun-19 07:49 270 4 gusting 4 19.4
2019-Jun-19 07:44 248 3 gusting 3 19.4
2019-Jun-19 07:39 315 3 gusting 3 18.9
2019-Jun-19 07:34 293 3 gusting 3 18.9
2019-Jun-19 07:29 270 3 gusting 5 18.3
2019-Jun-19 07:24 270 4 gusting 4 18.3
2019-Jun-19 07:19 270 3 gusting 5 18.3
2019-Jun-19 07:14 338 2 gusting 5 18.3
2019-Jun-19 07:09 293 2 gusting 4 18.3
2019-Jun-19 07:04 315 2 gusting 4 17.8
2019-Jun-19 06:59 315 2 gusting 5 17.8
2019-Jun-19 06:54 270 2 gusting 2 17.8
2019-Jun-19 06:49 315 2 gusting 3 17.8
2019-Jun-19 06:44 293 2 gusting 3 17.8
2019-Jun-19 06:39 293 2 gusting 3 17.8
2019-Jun-19 06:34 315 1 gusting 3 17.2
2019-Jun-19 06:29 293 1 gusting 1 17.2
2019-Jun-19 06:24 315 2 gusting 2 17.2
2019-Jun-19 06:19 315 3 gusting 3 17.2
2019-Jun-19 06:14 293 3 gusting 3 17.2
2019-Jun-19 06:09 293 3 gusting 3 17.2
2019-Jun-19 06:04 338 3 gusting 4 17.8
2019-Jun-19 05:59 315 4 gusting 4 17.8
2019-Jun-19 05:54 293 5 gusting 6 17.8
2019-Jun-19 05:49 315 5 gusting 5 17.8
2019-Jun-19 05:44 315 5 gusting 5 17.8
2019-Jun-19 05:39 315 5 gusting 6 17.8
2019-Jun-19 05:34 270 4 gusting 5 18.3
2019-Jun-19 05:29 270 4 gusting 4 18.3
2019-Jun-19 05:24 293 4 gusting 4 18.3
2019-Jun-19 05:19 315 4 gusting 5 17.8
2019-Jun-19 05:14 293 4 gusting 4 17.8
2019-Jun-19 05:09 315 5 gusting 5 17.8
2019-Jun-19 05:04 248 5 gusting 5 17.8
2019-Jun-19 04:59 248 5 gusting 7 17.8
2019-Jun-19 04:54 248 4 gusting 6 17.8
2019-Jun-19 04:49 270 4 gusting 4 17.2
2019-Jun-19 04:44 248 3 gusting 6 17.2
2019-Jun-19 04:39 270 3 gusting 3 17.2
2019-Jun-19 04:34 248 2 gusting 3 17.2
2019-Jun-19 04:29 248 1 gusting 3 16.7
2019-Jun-19 04:24 248 0 gusting 2 16.7
2019-Jun-19 04:19 180 0 gusting 0 16.7
2019-Jun-19 04:14 180 1 gusting 1 16.7
2019-Jun-19 04:09 180 1 gusting 1 16.7
2019-Jun-19 04:03 180 0 gusting 2 16.7
2019-Jun-19 03:58 180 0 gusting 0 16.7
2019-Jun-19 03:53 180 0 gusting 1 16.7
2019-Jun-19 03:48 158 0 gusting 0 16.7
2019-Jun-19 03:43 180 0 gusting 0 16.7
2019-Jun-19 03:38 180 0 gusting 1 16.7
2019-Jun-19 03:33 180 1 gusting 1 16.7
2019-Jun-19 03:28 180 2 gusting 2 17.2
2019-Jun-19 03:23 158 2 gusting 3 17.2
2019-Jun-19 03:18 158 2 gusting 4 17.2
2019-Jun-19 03:13 180 1 gusting 3 17.2
2019-Jun-19 03:08 158 1 gusting 1 17.2
2019-Jun-19 03:03 180 1 gusting 2 17.2
2019-Jun-19 02:58 203 1 gusting 1 17.2
2019-Jun-19 02:53 180 2 gusting 2 17.8
2019-Jun-19 02:48 158 2 gusting 3 17.8
2019-Jun-19 02:43 135 2 gusting 3 17.8
2019-Jun-19 02:38 158 2 gusting 2 17.8
2019-Jun-19 02:33 158 2 gusting 3 17.8
2019-Jun-19 02:28 158 1 gusting 4 17.8
2019-Jun-19 02:23 158 1 gusting 4 17.8
2019-Jun-19 02:18 158 1 gusting 1 17.8
2019-Jun-19 02:13 135 1 gusting 1 17.8
2019-Jun-19 02:08 158 2 gusting 2 17.8
2019-Jun-19 02:03 135 2 gusting 2 17.8
2019-Jun-19 01:58 113 2 gusting 4 17.8
2019-Jun-19 01:53 090 1 gusting 2 18.3
2019-Jun-19 01:48 090 1 gusting 3 18.3
2019-Jun-19 01:43 113 2 gusting 3 18.3
2019-Jun-19 01:38 090 3 gusting 3 18.3
2019-Jun-19 01:33 113 2 gusting 4 18.3
2019-Jun-19 01:28 090 2 gusting 2 18.3
2019-Jun-19 01:23 090 2 gusting 2 18.3
2019-Jun-19 01:16 045 2 gusting 3 18.3
2019-Jun-19 01:13 135 2 gusting 2 18.3
2019-Jun-19 01:08 113 3 gusting 6 18.3
2019-Jun-19 01:03 023 3 gusting 3 18.3
2019-Jun-19 00:58 023 4 gusting 4 18.3
2019-Jun-19 00:53 113 4 gusting 6 18.3
2019-Jun-19 00:48 068 3 gusting 3 18.9
2019-Jun-19 00:43 18.9
2019-Jun-19 00:38 090 3 gusting 6 18.9
2019-Jun-19 00:33 315 3 gusting 5 18.9
2019-Jun-19 00:28 023 2 gusting 3 18.9
2019-Jun-19 00:23 068 2 gusting 2 18.9
2019-Jun-19 00:18 068 2 gusting 3 18.9
2019-Jun-19 00:13 090 2 gusting 2 19.4
2019-Jun-19 00:08 068 2 gusting 3 19.4
2019-Jun-19 00:03 090 3 gusting 3 19.4
2019-Jun-18 23:58 068 3 gusting 3 19.4
2019-Jun-18 23:53 068 2 gusting 3 19.4
2019-Jun-18 23:48 090 2 gusting 4 19.4
2019-Jun-18 23:43 068 3 gusting 4 19.4
2019-Jun-18 23:38 090 2 gusting 3 20.0
2019-Jun-18 23:33 090 2 gusting 3 20.0
2019-Jun-18 23:28 045 2 gusting 2 20.0
2019-Jun-18 23:23 068 1 gusting 3 20.6
2019-Jun-18 23:18 20.6
2019-Jun-18 23:13 045 1 gusting 1 20.6
2019-Jun-18 23:08 090 1 gusting 1 20.6
2019-Jun-18 23:03 068 2 gusting 2 21.1
2019-Jun-18 22:58 068 3 gusting 3 21.1
2019-Jun-18 22:53 21.1
2019-Jun-18 22:48 338 1 gusting 1 21.1
2019-Jun-18 22:43 338 2 gusting 2 21.1
2019-Jun-18 22:38 338 2 gusting 4 20.6
2019-Jun-18 22:33 338 1 gusting 1 20.6
2019-Jun-18 22:28 090 1 gusting 1 20.0
2019-Jun-18 22:23 338 1 gusting 2 20.0
2019-Jun-18 22:18 248 1 gusting 1 20.0
2019-Jun-18 22:13 023 1 gusting 4 20.0
2019-Jun-18 22:09 090 2 gusting 2 20.0
2019-Jun-18 22:04 068 1 gusting 3 20.0
2019-Jun-18 21:59 135 1 gusting 2 20.0
2019-Jun-18 21:54 090 2 gusting 2 20.0
2019-Jun-18 21:49 068 3 gusting 3 20.0
2019-Jun-18 21:44 068 3 gusting 4 20.6
2019-Jun-18 21:14 113 1 gusting 1 20.6
2019-Jun-18 21:09 113 2 gusting 2 20.6
2019-Jun-18 21:04 090 3 gusting 3 21.1
2019-Jun-18 20:59 090 3 gusting 3 21.1
2019-Jun-18 20:54 090 3 gusting 3 21.1
2019-Jun-18 20:49 090 2 gusting 4 21.7
2019-Jun-18 20:44 090 1 gusting 2 21.7
2019-Jun-18 20:39 090 0 gusting 1 21.7
2019-Jun-18 20:34 090 0 gusting 0 22.2
2019-Jun-18 20:29 068 0 gusting 1 22.2
2019-Jun-18 20:24 068 0 gusting 1 22.2
2019-Jun-18 20:18 068 0 gusting 1 22.2
2019-Jun-18 20:13 068 0 gusting 0 22.8
2019-Jun-18 20:08 090 0 gusting 0 22.8
2019-Jun-18 20:03 068 0 gusting 1 22.8
2019-Jun-18 19:58 113 1 gusting 1 23.3
2019-Jun-18 19:53 090 1 gusting 1 23.3
2019-Jun-18 19:48 113 0 gusting 1 23.3
2019-Jun-18 19:43 090 0 gusting 1 23.9
2019-Jun-18 19:38 090 0 gusting 0 23.9
2019-Jun-18 19:33 090 0 gusting 0 23.9
2019-Jun-18 19:28 090 0 gusting 0 24.4
2019-Jun-18 19:23 090 1 gusting 1 24.4
2019-Jun-18 19:18 090 2 gusting 2 25.0
2019-Jun-18 19:13 113 2 gusting 2 25.0
2019-Jun-18 19:08 090 2 gusting 2 25.6
2019-Jun-18 19:03 090 2 gusting 2 26.1
2019-Jun-18 18:58 090 1 gusting 2 26.7
2019-Jun-18 18:53 113 2 gusting 2 27.2
2019-Jun-18 18:48 113 2 gusting 2 27.2
2019-Jun-18 18:43 135 2 gusting 2 27.8
2019-Jun-18 18:38 113 2 gusting 2 27.8
2019-Jun-18 18:33 135 2 gusting 2 27.8
2019-Jun-18 18:27 135 2 gusting 3 27.2
2019-Jun-18 18:22 135 2 gusting 2 26.7
2019-Jun-18 18:17 113 1 gusting 1 26.7
2019-Jun-18 18:12 113 1 gusting 2 26.7
2019-Jun-18 18:07 135 2 gusting 2 27.2
2019-Jun-18 18:02 135 2 gusting 2 27.2
2019-Jun-18 17:57 113 3 gusting 3 27.2
2019-Jun-18 17:52 135 3 gusting 3 27.8
2019-Jun-18 17:47 135 2 gusting 3 27.8
2019-Jun-18 17:42 113 1 gusting 2 28.3
2019-Jun-18 17:37 113 2 gusting 2 28.9
2019-Jun-18 17:32 135 2 gusting 2 28.9
2019-Jun-18 17:27 090 2 gusting 2 28.9
2019-Jun-18 17:22 113 3 gusting 3 28.9
2019-Jun-18 17:17 090 2 gusting 3 29.4
2019-Jun-18 17:12 090 2 gusting 4 29.4
2019-Jun-18 17:07 135 3 gusting 4 29.4
2019-Jun-18 17:02 135 4 gusting 4 30.0
2019-Jun-18 16:57 135 4 gusting 4 30.0
2019-Jun-18 16:52 135 3 gusting 4 30.0
2019-Jun-18 16:47 135 3 gusting 3 30.0
2019-Jun-18 16:42 113 3 gusting 3 30.0
2019-Jun-18 16:37 090 3 gusting 3 30.6
2019-Jun-18 16:32 090 3 gusting 4 30.6
2019-Jun-18 16:26 180 3 gusting 3 31.1
2019-Jun-18 16:21 158 2 gusting 2 31.1
2019-Jun-18 16:16 158 2 gusting 3 30.6
2019-Jun-18 16:11 135 2 gusting 2 30.0
2019-Jun-18 16:06 180 2 gusting 2 29.4
2019-Jun-18 16:01 180 2 gusting 3 28.9
2019-Jun-18 15:56 158 2 gusting 3 29.4
2019-Jun-18 15:51 135 3 gusting 3 29.4
2019-Jun-18 15:46 158 3 gusting 4 28.9
2019-Jun-18 15:41 135 2 gusting 3 28.3
2019-Jun-18 15:36 090 2 gusting 2 28.3
2019-Jun-18 15:31 158 2 gusting 2 28.3
2019-Jun-18 15:26 158 3 gusting 3 28.9
2019-Jun-18 15:21 135 3 gusting 5 28.9
2019-Jun-18 15:16 135 2 gusting 2 28.3
2019-Jun-18 15:11 158 2 gusting 3 28.3
2019-Jun-18 15:06 113 2 gusting 3 28.3
2019-Jun-18 15:01 068 2 gusting 3 28.3
2019-Jun-18 14:56 113 2 gusting 2 27.8
2019-Jun-18 14:51 135 2 gusting 2 27.8
2019-Jun-18 14:46 113 2 gusting 2 27.8
2019-Jun-18 14:41 113 2 gusting 3 27.8
2019-Jun-18 14:36 158 2 gusting 2 27.8
2019-Jun-18 14:31 180 2 gusting 2 27.2
2019-Jun-18 14:26 135 1 gusting 2 27.2
2019-Jun-18 14:21 113 2 gusting 2 27.2
2019-Jun-18 14:16 135 2 gusting 3 27.2
2019-Jun-18 14:11 180 1 gusting 3 27.2
2019-Jun-18 14:06 180 1 gusting 2 27.2
2019-Jun-18 14:01 158 0 gusting 2 27.2
2019-Jun-18 13:56 180 1 gusting 1 27.8
2019-Jun-18 13:51 180 1 gusting 1 27.8
2019-Jun-18 13:50 135 1 gusting 2 27.8
2019-Jun-18 13:45 158 1 gusting 1 27.8
2019-Jun-18 13:40 158 1 gusting 1 28.3
2019-Jun-18 13:35 135 2 gusting 2 28.3
2019-Jun-18 13:30 108 2 gusting 4 28.3
2019-Jun-18 13:25 124 3 gusting 3 28.3
2019-Jun-18 13:19 113 3 gusting 3 28.3
2019-Jun-18 13:14 135 3 gusting 4 28.3
2019-Jun-18 13:09 135 3 gusting 3 28.9
2019-Jun-18 13:04 113 2 gusting 4 28.9
2019-Jun-18 12:59 135 3 gusting 3 28.9
2019-Jun-18 12:54 113 3 gusting 3 28.9
2019-Jun-18 12:49 135 3 gusting 4 28.9
2019-Jun-18 12:44 203 2 gusting 2 28.9
2019-Jun-18 12:39 158 2 gusting 4 28.3
2019-Jun-18 12:34 090 3 gusting 3 28.3
2019-Jun-18 12:29 113 3 gusting 3 27.8
2019-Jun-18 12:24 135 3 gusting 4 27.8
2019-Jun-18 12:19 135 3 gusting 3 27.2
2019-Jun-18 12:14 135 3 gusting 3 27.2
2019-Jun-18 12:09 135 3 gusting 3 26.7
2019-Jun-18 12:04 158 3 gusting 4 26.7
2019-Jun-18 11:59 135 3 gusting 4 27.2
2019-Jun-18 11:54 090 3 gusting 3 27.8
2019-Jun-18 11:49 135 3 gusting 3 27.2
2019-Jun-18 11:44 180 3 gusting 3 27.2
2019-Jun-18 11:39 135 3 gusting 3 26.7
2019-Jun-18 11:34 090 2 gusting 2 26.7
2019-Jun-18 11:28 135 2 gusting 3 26.7
2019-Jun-18 11:23 090 3 gusting 3 26.1
2019-Jun-18 11:18 090 4 gusting 6 26.7
2019-Jun-18 11:13 113 4 gusting 5 26.7
2019-Jun-18 11:08 113 5 gusting 5 26.1
2019-Jun-18 11:03 135 4 gusting 4 26.1
2019-Jun-18 10:58 113 4 gusting 5 26.1
2019-Jun-18 10:53 068 3 gusting 4 26.1
2019-Jun-18 10:48 090 4 gusting 5 25.6
2019-Jun-18 10:43 113 4 gusting 4 25.6
2019-Jun-18 10:38 090 4 gusting 4 25.6
2019-Jun-18 10:33 090 3 gusting 7 25.0
2019-Jun-18 10:28 158 3 gusting 4 25.0
2019-Jun-18 10:23 090 4 gusting 4 25.0
2019-Jun-18 10:18 090 4 gusting 4 24.4
2019-Jun-18 10:13 068 4 gusting 6 24.4
2019-Jun-18 10:08 113 4 gusting 4 24.4
2019-Jun-18 10:02 158 4 gusting 6 24.4
2019-Jun-18 09:57 090 3 gusting 6 24.4
2019-Jun-18 09:52 068 3 gusting 5 23.9
2019-Jun-18 09:47 090 4 gusting 4 23.9
2019-Jun-18 09:42 135 4 gusting 4 23.3
2019-Jun-18 09:37 090 4 gusting 4 23.3
2019-Jun-18 09:32 023 1 gusting 1 16.7
2019-Jun-18 09:27 023 1 gusting 1 16.7
2019-Jun-18 09:23 068 1 gusting 1 16.7
2019-Jun-18 09:18 068 1 gusting 1 16.7
2019-Jun-18 09:13 068 1 gusting 1 16.7
2019-Jun-18 09:08 068 1 gusting 1 16.7
2019-Jun-18 09:03 068 1 gusting 1 16.7
2019-Jun-18 08:58 068 1 gusting 1 16.7
2019-Jun-18 08:53 068 1 gusting 1 16.7
2019-Jun-18 08:48 068 1 gusting 1 16.7
2019-Jun-18 08:43 068 1 gusting 1 16.7
2019-Jun-18 08:38 068 1 gusting 1 16.7
2019-Jun-18 08:33 068 1 gusting 1 16.7
2019-Jun-18 08:28 068 1 gusting 1 16.7
2019-Jun-18 08:23 068 1 gusting 1 16.7
2019-Jun-18 08:18 068 1 gusting 1 16.7
2019-Jun-18 08:13 068 1 gusting 1 16.7
2019-Jun-18 08:08 068 1 gusting 1 16.7
2019-Jun-18 08:03 068 1 gusting 1 16.7
2019-Jun-18 07:58 068 1 gusting 1 16.7
2019-Jun-18 07:53 068 1 gusting 1 16.7
2019-Jun-18 07:48 068 1 gusting 1 16.7
2019-Jun-18 07:43 068 1 gusting 1 16.7
2019-Jun-18 07:38 068 1 gusting 1 16.7
2019-Jun-18 07:33 068 1 gusting 1 16.7
2019-Jun-18 07:28 068 1 gusting 1 16.7
2019-Jun-18 07:23 068 1 gusting 1 16.7
2019-Jun-18 07:18 068 1 gusting 1 16.7
2019-Jun-18 07:13 068 1 gusting 1 16.7
2019-Jun-18 07:08 068 1 gusting 1 16.7
2019-Jun-18 07:03 068 1 gusting 1 16.7
2019-Jun-18 06:58 068 1 gusting 1 16.7
2019-Jun-18 06:53 068 1 gusting 1 16.7
2019-Jun-18 06:48 068 1 gusting 1 16.7
2019-Jun-18 06:43 068 1 gusting 1 16.7
2019-Jun-18 06:38 068 1 gusting 1 16.7
2019-Jun-18 06:33 068 1 gusting 1 16.7
2019-Jun-18 06:28 068 1 gusting 1 16.7
2019-Jun-18 06:23 068 1 gusting 1 16.7
2019-Jun-18 06:18 068 1 gusting 1 16.7
2019-Jun-18 06:13 068 1 gusting 1 16.7
2019-Jun-18 06:08 068 1 gusting 1 16.7
2019-Jun-18 06:03 068 1 gusting 1 16.7
2019-Jun-18 05:58 068 1 gusting 1 16.7
2019-Jun-18 05:53 068 1 gusting 1 16.7
2019-Jun-18 05:48 068 1 gusting 1 16.7
2019-Jun-18 05:43 068 1 gusting 1 16.7
2019-Jun-18 05:38 068 1 gusting 1 16.7
2019-Jun-18 05:33 068 1 gusting 1 16.7
2019-Jun-18 05:28 068 1 gusting 1 16.7
2019-Jun-18 05:23 068 1 gusting 1 16.7
2019-Jun-18 05:18 068 1 gusting 1 16.7
2019-Jun-18 05:13 068 1 gusting 1 16.7
2019-Jun-18 05:08 068 1 gusting 1 16.7
2019-Jun-18 05:03 068 1 gusting 1 16.7
2019-Jun-18 04:58 068 1 gusting 1 16.7
2019-Jun-18 04:53 068 1 gusting 1 16.7
2019-Jun-18 04:48 068 1 gusting 1 16.7
2019-Jun-18 04:43 068 1 gusting 1 16.7
2019-Jun-18 04:38 068 1 gusting 1 16.7
2019-Jun-18 04:33 068 1 gusting 1 16.7
2019-Jun-18 04:28 068 1 gusting 1 16.7
2019-Jun-18 04:23 068 1 gusting 1 16.7
2019-Jun-18 04:18 068 1 gusting 1 16.7
2019-Jun-18 04:13 068 1 gusting 1 16.7
2019-Jun-18 04:08 068 1 gusting 1 16.7
2019-Jun-18 04:03 068 1 gusting 1 16.7
2019-Jun-18 03:58 068 1 gusting 1 16.7
2019-Jun-18 03:53 068 1 gusting 1 16.7
2019-Jun-18 03:48 068 1 gusting 1 16.7
2019-Jun-18 03:43 068 1 gusting 1 16.7
2019-Jun-18 03:38 068 1 gusting 1 16.7
2019-Jun-18 03:33 068 1 gusting 1 16.7
2019-Jun-18 03:28 068 1 gusting 1 16.7
2019-Jun-18 03:23 068 1 gusting 1 16.7
2019-Jun-18 03:18 068 1 gusting 1 16.7
2019-Jun-18 03:13 068 1 gusting 1 16.7
2019-Jun-18 03:08 068 1 gusting 1 16.7
2019-Jun-18 03:03 068 1 gusting 1 16.7
2019-Jun-18 02:58 068 1 gusting 1 16.7
2019-Jun-18 02:53 068 1 gusting 1 16.7
2019-Jun-18 02:48 068 1 gusting 1 16.7
2019-Jun-18 02:43 068 1 gusting 1 16.7
2019-Jun-18 02:38 068 1 gusting 1 16.7
2019-Jun-18 02:33 068 1 gusting 1 16.7
2019-Jun-18 02:28 068 1 gusting 1 16.7
2019-Jun-18 02:23 068 1 gusting 1 16.7
2019-Jun-18 02:18 068 1 gusting 1 16.7
2019-Jun-18 02:13 068 1 gusting 1 16.7
2019-Jun-18 02:08 068 1 gusting 1 16.7
2019-Jun-18 02:03 068 1 gusting 1 16.7
2019-Jun-18 01:58 068 1 gusting 1 16.7
2019-Jun-18 01:53 068 1 gusting 1 16.7
2019-Jun-18 01:48 068 1 gusting 1 16.7
2019-Jun-18 01:43 068 1 gusting 1 16.7
2019-Jun-18 01:38 068 1 gusting 1 16.7
2019-Jun-18 01:33 068 1 gusting 1 16.7
2019-Jun-18 01:28 068 1 gusting 1 16.7
2019-Jun-18 01:23 068 1 gusting 1 16.7
2019-Jun-18 01:18 068 1 gusting 1 16.7
2019-Jun-18 01:13 068 1 gusting 1 16.7
2019-Jun-18 01:08 068 1 gusting 1 16.7
2019-Jun-18 01:03 068 1 gusting 1 16.7
2019-Jun-18 00:58 068 1 gusting 1 16.7
2019-Jun-18 00:53 068 1 gusting 1 16.7
2019-Jun-18 00:48 068 1 gusting 1 16.7
2019-Jun-18 00:43 068 1 gusting 1 16.7
2019-Jun-18 00:38 068 1 gusting 1 16.7
2019-Jun-18 00:33 068 1 gusting 1 16.7
2019-Jun-18 00:28 068 1 gusting 1 16.7
2019-Jun-18 00:23 068 1 gusting 1 16.7
2019-Jun-18 00:18 068 1 gusting 1 16.7
2019-Jun-18 00:13 068 1 gusting 1 16.7
2019-Jun-18 00:08 068 1 gusting 1 16.7
2019-Jun-18 00:03 068 1 gusting 1 16.7
2019-Jun-17 23:58 068 1 gusting 1 16.7
2019-Jun-17 23:53 068 1 gusting 1 16.7
2019-Jun-17 23:48 068 1 gusting 1 16.7
2019-Jun-17 23:45 023 1 gusting 1 16.7
2019-Jun-17 23:40 023 1 gusting 1 16.7
2019-Jun-17 23:35 023 1 gusting 1 16.7
2019-Jun-17 23:30 023 1 gusting 1 16.7
2019-Jun-17 23:25 023 1 gusting 1 16.7
2019-Jun-17 23:20 023 1 gusting 1 16.7
2019-Jun-17 23:15 023 1 gusting 1 16.7
2019-Jun-17 23:10 023 1 gusting 1 16.7
2019-Jun-17 23:05 023 1 gusting 1 16.7
2019-Jun-17 23:00 025 1 gusting 2 16.7
2019-Jun-17 22:55 025 1 gusting 2 16.7
2019-Jun-17 22:50 025 1 gusting 2 16.7
2019-Jun-17 22:45 025 1 gusting 2 16.7
2019-Jun-17 22:39 023 1 gusting 1 16.7
2019-Jun-17 22:34 023 1 gusting 1 16.7
2019-Jun-17 22:29 023 1 gusting 1 16.7
2019-Jun-17 22:24 023 1 gusting 1 16.7
2019-Jun-17 22:19 023 1 gusting 1 16.7
2019-Jun-17 22:14 023 1 gusting 1 16.7
2019-Jun-17 22:09 023 1 gusting 1 16.7
2019-Jun-17 22:04 023 1 gusting 1 16.7
2019-Jun-17 21:59 023 1 gusting 1 16.7
2019-Jun-17 21:54 023 1 gusting 1 16.7
2019-Jun-17 21:49 023 1 gusting 1 16.7
2019-Jun-17 21:44 023 1 gusting 1 16.7
2019-Jun-17 21:39 023 1 gusting 1 16.7
2019-Jun-17 21:34 023 1 gusting 1 16.7
2019-Jun-17 21:29 023 1 gusting 1 16.7
2019-Jun-17 21:24 023 1 gusting 1 16.7
2019-Jun-17 21:19 023 1 gusting 1 16.7
2019-Jun-17 21:14 023 1 gusting 1 16.7
2019-Jun-17 21:09 023 1 gusting 1 16.7
2019-Jun-17 21:04 023 1 gusting 1 16.7
2019-Jun-17 20:59 023 1 gusting 1 16.7
2019-Jun-17 20:54 023 1 gusting 1 16.7
2019-Jun-17 20:49 023 1 gusting 1 16.7
2019-Jun-17 20:44 023 1 gusting 1 16.7
2019-Jun-17 20:39 338 0 gusting 4 16.7
2019-Jun-17 20:34 17.2
2019-Jun-17 20:29 17.2
2019-Jun-17 20:24 338 1 gusting 1 17.2
2019-Jun-17 20:19 315 1 gusting 1 17.2
2019-Jun-17 20:14 338 1 gusting 1 17.2
2019-Jun-17 20:09 315 2 gusting 2 17.8
2019-Jun-17 20:04 315 1 gusting 4 17.8
2019-Jun-17 19:59 315 1 gusting 1 17.8
2019-Jun-17 19:54 338 1 gusting 1 17.8
2019-Jun-17 19:49 315 1 gusting 1 18.3
2019-Jun-17 19:44 18.3
2019-Jun-17 19:39 023 2 gusting 2 18.3
2019-Jun-17 19:34 023 3 gusting 3 18.3
2019-Jun-17 19:29 18.9
2019-Jun-17 19:23 338 3 gusting 4 18.9
2019-Jun-17 19:18 338 4 gusting 6 18.9
2019-Jun-17 19:13 338 4 gusting 4 18.9
2019-Jun-17 19:08 293 3 gusting 4 18.9
2019-Jun-17 19:03 19.4
2019-Jun-17 18:58 338 4 gusting 4 19.4
2019-Jun-17 18:53 19.4
2019-Jun-17 18:48 023 3 gusting 4 20.0
2019-Jun-17 18:43 20.0
2019-Jun-17 18:38 023 4 gusting 4 20.6
2019-Jun-17 18:33 338 5 gusting 5 21.1
2019-Jun-17 18:28 023 5 gusting 5 21.1
2019-Jun-17 18:23 315 5 gusting 8 21.7